sat.trackr.live / text

‹ back to catalog

STARLINK-36229

NORAD 68114 · 2026-044P

PAYLOAD ACTIVE UNKNOWN

§ Identity

Operator
Country
US
Launch date
2026-03-08
Launch site
AFWTR
Launch vehicle
Mass (kg)
RCS (m²)

Purposes: comms

External: N2YO · Heavens-Above · Gunter

§ Orbital elements

Epoch: 2026-09-20T03:33:34.745184Z

Period
93.91 min
Inclination
97.2853°
Eccentricity
0.0001994
Mean motion
15.33439296 rev/d
Perigee alt
464.2 km
Apogee alt
466.9 km
Semi-major
6,843.7 km
B*
9.9937e-5
RAAN
222.1016°
Arg perigee
90.3957°
Mean anomaly
269.7514°
Rev number
3,138

§ Raw data

STARLINK-362291 68114U 26044P   26263.14831881  .00003152  00000+0  99937-4 0  99902 68114  97.2853 222.1016 0001994  90.3957 269.7514 15.33439296 31380

JSON: /api/v1/satellites/68114 · /tle

For live sub-satellite position, see the globe view (requires WebGL).

§ Visibility from observer

Set your observer location to see the next 7 days of passes ≥ 10°. The values pass through the URL so the page stays shareable.

No JS? Fill the form by hand. The geolocation button needs JavaScript.